Weather History for Elbow Lake, MN

Change the Weather History Date:

Tuesday, October 1, 2013

  Actual Average (KFFM) Record (KFFM)
Temperature  
Mean Temperature 58 °F -  
Max Temperature 69 °F 64 °F 86 °F (1953)
Min Temperature 46 °F 41 °F 24 °F (1961)
Degree Days  
Heating Degree Days 8    
Growing Degree Days 8 (Base 50)    
Moisture  
Dew Point 41 °F    
Average Humidity 55    
Maximum Humidity 90    
Minimum Humidity 26    
Precipitation  
Precipitation 0.00 in - - ()
Sea Level Pressure  
Sea Level Pressure 29.80 in    
Wind  
Wind Speed 11 mph (West)    
Max Wind Speed 23 mph    
Max Gust Speed 32 mph    
Visibility 10 miles    
Events Rain    
Averages and records for this station are not official NWS values.
T = Trace of Precipitation, MM = Missing Value Source: NWS Daily Summary

Daily Weather History Graph

Daily Weather History Graph

Search for Another Location

Airport:

Trip Planner

Search our weather history database for the weather conditions in past years. The results will help you decide how hot, cold, wet, or windy it might be!

Date:

Astronomy

Oct. 01, 2013 Rise Set
Actual Time 7:22 AM CDT 7:03 PM CDT
Civil Twilight 6:52 AM CDT 7:33 PM CDT
Nautical Twilight 6:18 AM CDT 8:07 PM CDT
Astronomical Twilight 5:43 AM CDT 8:42 PM CDT
Moon 3:48 AM CDT (10/1) 5:15 PM CDT (10/1)
Length of Visible Light 12h 40m
Length of Day
11h 40m
Waning Crescent, 12% of the Moon is Illuminated
Oct 1
Waning Crescent
Oct 4
New
Oct 11
First Quarter
Oct 18
Full
Oct 26
Last Quarter

Hourly Weather History & Observations

Time (CDT) Temp. Dew Point Humidity Pressure Visibility Wind Dir Wind Speed Gust Speed Precip Events Conditions
12:15 AM 64.6 °F 52.2 °F 64% 29.50 in 10.0 mi ESE 6.9 mph - N/A   Scattered Clouds
12:34 AM 64.8 °F 51.6 °F 62% 29.50 in 10.0 mi SE 5.8 mph - N/A Rain Light Rain
12:55 AM 64.4 °F 51.8 °F 64% 29.50 in 10.0 mi SSE 8.1 mph - N/A   Clear
1:14 AM 62.6 °F 51.8 °F 68% 29.51 in 10.0 mi SSE 9.2 mph - N/A   Light Drizzle
1:34 AM 63.1 °F 52.0 °F 67% 29.53 in 10.0 mi South 5.8 mph - N/A   Scattered Clouds
1:54 AM 64.2 °F 51.8 °F 64% 29.54 in 10.0 mi West 9.2 mph 26.5 mph N/A   Scattered Clouds
2:14 AM 61.7 °F 52.2 °F 71% 29.56 in 10.0 mi WNW 11.5 mph - N/A   Clear
2:34 AM 63.5 °F 52.0 °F 66% 29.56 in 10.0 mi NNW 15.0 mph 21.9 mph N/A   Scattered Clouds
2:54 AM 62.8 °F 51.4 °F 66% 29.56 in 10.0 mi NNW 18.4 mph 24.2 mph N/A Rain Light Rain
3:14 AM 62.2 °F 50.9 °F 66% 29.58 in 10.0 mi NNW 16.1 mph - N/A   Clear
3:34 AM 61.5 °F 50.7 °F 68% 29.60 in 10.0 mi NW 15.0 mph - N/A   Scattered Clouds
3:54 AM 60.1 °F 50.2 °F 70% 29.63 in 10.0 mi NW 13.8 mph 23.0 mph N/A   Scattered Clouds
4:14 AM 58.5 °F 49.8 °F 73% 29.64 in 10.0 mi NW 15.0 mph 20.7 mph N/A   Clear
4:34 AM 57.4 °F 48.6 °F 72% 29.67 in 10.0 mi NW 11.5 mph - N/A   Clear
4:54 AM 56.5 °F 48.4 °F 74% 29.68 in 10.0 mi NW 10.4 mph - N/A   Scattered Clouds
5:15 AM 55.0 °F 48.6 °F 79% 29.70 in 10.0 mi WNW 8.1 mph - N/A   Scattered Clouds
5:34 AM 53.2 °F 48.6 °F 84% 29.70 in 10.0 mi WNW 5.8 mph - N/A   Scattered Clouds
5:54 AM 50.5 °F 47.7 °F 90% 29.71 in 10.0 mi WNW 5.8 mph - N/A   Clear
6:14 AM 51.1 °F 47.7 °F 88% 29.72 in 10.0 mi WNW 8.1 mph - N/A   Clear
6:34 AM 51.4 °F 47.1 °F 85% 29.73 in 10.0 mi WNW 9.2 mph - N/A   Clear
6:54 AM 50.9 °F 46.0 °F 83% 29.75 in 10.0 mi WNW 8.1 mph - N/A   Clear
7:14 AM 50.9 °F 45.1 °F 81% 29.76 in 10.0 mi West 8.1 mph - N/A   Clear
7:34 AM 49.5 °F 44.1 °F 82% 29.77 in 10.0 mi WNW 6.9 mph - N/A   Clear
7:54 AM 50.2 °F 43.7 °F 78% 29.78 in 10.0 mi West 9.2 mph - N/A   Clear
8:15 AM 50.9 °F 43.5 °F 76% 29.79 in 10.0 mi WNW 9.2 mph - N/A   Clear
8:34 AM 52.7 °F 42.8 °F 69% 29.80 in 10.0 mi WNW 9.2 mph - N/A   Clear
8:54 AM 54.5 °F 42.3 °F 63% 29.81 in 10.0 mi WNW 12.7 mph - N/A   Clear
9:15 AM 56.3 °F 41.9 °F 59% 29.82 in 10.0 mi West 13.8 mph 19.6 mph N/A   Clear
9:34 AM 57.4 °F 41.2 °F 55% 29.83 in 10.0 mi WNW 13.8 mph 21.9 mph N/A   Clear
9:55 AM 58.6 °F 40.6 °F 51% 29.84 in 10.0 mi WNW 13.8 mph 19.6 mph N/A   Clear
10:14 AM 60.1 °F 40.8 °F 49% 29.85 in 10.0 mi WNW 16.1 mph 23.0 mph N/A   Clear
10:35 AM 60.8 °F 39.2 °F 45% 29.86 in 10.0 mi WNW 17.3 mph 25.3 mph N/A   Clear
10:54 AM 61.7 °F 39.2 °F 43% 29.86 in 10.0 mi West 16.1 mph 20.7 mph N/A   Clear
11:15 AM 62.2 °F 38.7 °F 42% 29.86 in 10.0 mi West 18.4 mph 24.2 mph N/A   Clear
11:34 AM 63.1 °F 38.7 °F 40% 29.87 in 10.0 mi West 15.0 mph 32.2 mph N/A   Clear
11:55 AM 63.7 °F 37.6 °F 38% 29.87 in 10.0 mi WNW 13.8 mph 24.2 mph N/A   Clear
12:14 PM 63.9 °F 37.2 °F 37% 29.87 in 10.0 mi West 16.1 mph 24.2 mph N/A   Clear
12:35 PM 65.1 °F 37.4 °F 36% 29.87 in 10.0 mi West 19.6 mph 27.6 mph N/A   Clear
12:54 PM 65.3 °F 37.8 °F 36% 29.87 in 10.0 mi West 18.4 mph 28.8 mph N/A   Clear
1:14 PM 65.7 °F 37.6 °F 36% 29.87 in 10.0 mi West 18.4 mph 26.5 mph N/A   Clear
1:34 PM 66.7 °F 37.6 °F 34% 29.87 in 10.0 mi West 17.3 mph 25.3 mph N/A   Clear
1:54 PM 67.1 °F 37.4 °F 34% 29.87 in 10.0 mi West 15.0 mph 27.6 mph N/A   Clear
2:15 PM 67.1 °F 37.0 °F 33% 29.87 in 10.0 mi West 21.9 mph 28.8 mph N/A   Clear
2:34 PM 68.0 °F 36.9 °F 32% 29.87 in 10.0 mi West 18.4 mph 26.5 mph N/A   Clear
2:54 PM 69.3 °F 35.2 °F 29% 29.87 in 10.0 mi West 20.7 mph 32.2 mph N/A   Clear
3:14 PM 69.1 °F 33.3 °F 27% 29.87 in 10.0 mi WNW 16.1 mph 31.1 mph N/A   Clear
3:35 PM 69.1 °F 32.9 °F 26% 29.87 in 10.0 mi West 23.0 mph 28.8 mph N/A   Clear
3:54 PM 69.1 °F 33.4 °F 27% 29.87 in 10.0 mi WNW 19.6 mph 28.8 mph N/A   Clear
4:15 PM 68.9 °F 33.3 °F 27% 29.88 in 10.0 mi West 20.7 mph 27.6 mph N/A   Clear
4:34 PM 68.9 °F 33.1 °F 27% 29.87 in 10.0 mi West 17.3 mph 24.2 mph N/A   Clear
4:55 PM 68.5 °F 33.4 °F 27% 29.88 in 10.0 mi West 16.1 mph 20.7 mph N/A   Clear
5:14 PM 68.2 °F 35.2 °F 30% 29.88 in 10.0 mi WNW 13.8 mph 20.7 mph N/A   Clear
5:34 PM 67.6 °F 33.8 °F 29% 29.89 in 10.0 mi West 13.8 mph - N/A   Clear
5:55 PM 66.7 °F 35.1 °F 31% 29.89 in 10.0 mi West 11.5 mph - N/A   Clear
6:14 PM 65.5 °F 35.6 °F 33% 29.89 in 10.0 mi West 6.9 mph - N/A   Clear
6:35 PM 63.0 °F 35.8 °F 36% 29.89 in 10.0 mi West 6.9 mph - N/A   Clear
6:55 PM 60.8 °F 36.0 °F 40% 29.89 in 10.0 mi West 5.8 mph - N/A   Clear
7:14 PM 58.5 °F 36.1 °F 43% 29.89 in 10.0 mi West 3.5 mph - N/A   Clear
7:35 PM 56.1 °F 37.4 °F 49% 29.90 in 10.0 mi Calm Calm - N/A   Clear
7:55 PM 52.3 °F 38.7 °F 60% 29.91 in 10.0 mi SSW 4.6 mph - N/A   Clear
8:15 PM 52.9 °F 38.1 °F 57% 29.92 in 10.0 mi SW 8.1 mph - N/A   Clear
8:34 PM 52.5 °F 37.8 °F 57% 29.92 in 10.0 mi SW 9.2 mph - N/A   Clear
8:55 PM 50.5 °F 37.9 °F 62% 29.93 in 10.0 mi SW 9.2 mph - N/A   Clear
9:15 PM 50.5 °F 37.8 °F 62% 29.93 in 10.0 mi SW 5.8 mph - N/A   Clear
9:35 PM 50.2 °F 37.6 °F 62% 29.94 in 10.0 mi WSW 8.1 mph - N/A   Clear
9:54 PM 49.3 °F 37.4 °F 64% 29.94 in 10.0 mi WSW 5.8 mph - N/A   Clear
10:15 PM 48.4 °F 37.6 °F 66% 29.95 in 10.0 mi SW 5.8 mph - N/A   Clear
10:34 PM 46.9 °F 38.3 °F 72% 29.96 in 10.0 mi SW 5.8 mph - N/A   Clear
10:55 PM 47.7 °F 39.2 °F 72% 29.97 in 10.0 mi Calm Calm - N/A   Clear
11:14 PM 49.1 °F 38.3 °F 66% 29.97 in 10.0 mi SW 3.5 mph - N/A   Clear
11:35 PM 48.9 °F 37.8 °F 65% 29.98 in 10.0 mi SSW 3.5 mph - N/A   Clear
11:54 PM 48.9 °F 37.6 °F 65% 29.98 in 10.0 mi SW 3.5 mph - N/A   Clear